Location: Unspecified
(29.9680°N, 0.0000°E)
Time: 03:49:53
(UTC+00:00)

A-11 Canister half - Visible Passes

Search period start: 18 June 2019 00:00
Search period end: 28 June 2019 00:00
Orbit: 1525 x 1684 km, 47.3° (Epoch: 16 June)

Date Brightness Start Highest point End Pass type
(mag) Time Alt. Az. Time Alt. Az. Time Alt. Az.
18 Jun 10.7 02:10:14 12° SSE 02:14:08 15° SE 02:19:02 10° E visible
18 Jun 9.2 04:08:38 10° SW 04:18:06 71° SE 04:27:22 10° NE visible
19 Jun 10.7 01:49:58 12° SE 01:52:34 14° ESE 01:56:53 10° E visible
19 Jun 9.2 03:48:16 15° SW 03:56:30 67° SE 04:05:44 10° NE visible
20 Jun 10.7 01:29:39 12° SE 01:31:00 13° ESE 01:34:36 10° E visible
20 Jun 9.2 03:27:58 20° SSW 03:34:54 64° SE 03:44:05 10° NE visible
21 Jun 10.8 01:09:17 11° ESE 01:09:26 11° ESE 01:12:06 10° ESE visible
21 Jun 9.2 03:07:35 26° SSW 03:13:18 60° SE 03:22:26 10° ENE visible
22 Jun 9.3 02:47:10 32° SSW 02:51:42 57° SE 03:00:47 10° ENE visible
23 Jun 9.3 02:26:42 38° S 02:30:06 54° SE 02:39:07 10° ENE visible
23 Jun 9.5 04:25:59 10° WSW 04:35:10 51° NNW 04:44:11 10° NE visible
24 Jun 9.3 02:06:11 43° S 02:08:30 51° SE 02:17:27 10° ENE visible
24 Jun 9.5 04:04:29 11° WSW 04:13:30 53° NNW 04:22:35 10° NE visible
25 Jun 9.3 01:45:37 45° SSE 01:46:54 48° SE 01:55:47 10° ENE visible
25 Jun 9.4 03:43:54 15° WSW 03:51:50 56° NNW 04:00:59 10° NE visible
26 Jun 9.4 01:25:01 45° SE 01:25:18 45° SE 01:34:06 10° ENE visible
26 Jun 9.3 03:23:17 20° WSW 03:30:10 58° NNW 03:39:22 10° NE visible
27 Jun 9.5 01:04:21 42° ESE 01:04:21 42° ESE 01:12:25 10° ENE visible
27 Jun 9.3 03:02:38 26° WSW 03:08:30 61° NW 03:17:46 10° NE visible
